Location: Bennemühlen
(52.5740°N, 9.7135°E)
Time: 16:24:00
(UTC+00:00)

Tiros 1 despin weight - Pass Details

Date: 17 February 2026
Orbit: 556 x 593 km, 48.2° (Epoch: 11 March)

Event Time Altitude Azimuth Distance (km) Brightness Sun altitude
Rises 18:45:51 0° 271° (W) 2,734 ? -20.1°
Reaches altitude 10° 18:48:14 10° 263° (W) 1,839 ? -20.4°
Maximum altitude 18:52:03 35° 197° (SSW) 916 ? -21.0°
Enters shadow 18:52:54 31° 171° (S) 982 ? -21.1°
Drops below altitude 10° 18:55:53 10° 132° (SE) 1,842 - -21.6°
Sets 18:58:16 0° 123° (ESE) 2,741 - -21.9°
